Date String (YYYY-MM-DD hh:mm:ss) UTC,Instrument flags,absolute air pressure of the measurement (hPa),sample flow rate (lpm),inlet stack bypass flow (lpm),air temperature of the measurement (°C),ambient temperature measured by the external sensor (°C),aerosol sample conditioner tube jacket temperature (°C),OPC LED temperature (°C),internal box temperature (°C),relative humidity of the measurement (%),span deviation,mass concentration of particles derived from Lorenz-Mie calculation of OPC scattering (μg/m³),mass concentration of particles derived from Lorenz-Mie calculation of OPC scattering (μg/m³),mass concentration of particles derived from Lorenz-Mie calculation of OPC scattering (μg/m³)
DateTimeUTC,F1_M11,P_M11,Q1_M11,Q2_M11,T1_M11,T2_M11,T3_M11,T4_M11,T5_M11,U1_M11,ZSPAN_M11,X0_M11,X2_M11,X1_M11
2024-05-22 20:00:00,SystemResetWarning,0823.8,5.00,000.00,027.4,026.7,000.0,035.5,029.1,008.3,0000.0,0006.90,0001.93,0001.49
2024-05-22 20:01:00,SystemResetWarning,0823.8,5.00,000.00,027.4,026.7,000.0,035.5,029.2,008.5,0000.0,0007.31,0001.99,0001.49
2024-05-22 20:02:00,SystemResetWarning,0823.8,5.00,000.00,027.4,026.8,000.0,035.5,029.2,008.8,0000.0,0007.72,0001.97,0001.49
2024-05-22 20:03:00,SystemResetWarning,0823.8,4.99,000.00,027.4,026.8,000.0,035.5,029.2,009.1,0000.0,0007.92,0001.99,0001.48
2024-05-22 20:04:00,SystemResetWarning,0823.8,5.01,000.00,027.4,026.8,000.0,035.6,029.2,008.5,0000.0,0006.62,0002.03,0001.48
2024-05-22 20:05:00,SystemResetWarning,0823.8,5.00,000.00,027.5,026.8,000.0,035.6,029.2,008.8,0000.0,0006.54,0002.02,0001.49
2024-05-22 20:06:00,SystemResetWarning,0823.8,5.01,000.00,027.5,026.8,000.0,035.6,029.2,008.4,0000.0,0007.02,0002.06,0001.49
2024-05-22 20:07:00,SystemResetWarning,0823.8,5.00,000.00,027.5,026.8,000.0,035.6,029.3,008.3,0000.0,0007.22,0002.14,0001.51
2024-05-22 20:08:00,SystemResetWarning,0823.8,4.99,000.00,027.5,026.9,000.0,035.6,029.3,008.1,0000.0,0007.32,0002.18,0001.51
2024-05-22 20:09:00,SystemResetWarning,0823.8,4.99,000.00,027.5,026.9,000.0,035.6,029.3,008.2,0000.0,0007.53,0002.21,0001.51
2024-05-22 20:10:00,SystemResetWarning,0823.8,4.99,000.00,027.5,026.9,000.0,035.7,029.3,008.4,0000.0,0007.56,0002.23,0001.52
2024-05-22 20:11:00,SystemResetWarning,0823.8,5.01,000.00,027.6,026.9,000.0,035.7,029.3,008.9,0000.0,0007.54,0002.22,0001.50
2024-05-22 20:12:00,SystemResetWarning,0823.7,5.01,000.00,027.6,026.9,000.0,035.7,029.3,009.3,0000.0,0007.25,0002.21,0001.50
2024-05-22 20:13:00,SystemResetWarning,0823.7,5.01,000.00,027.6,027.0,000.0,035.7,029.3,009.0,0000.0,0007.77,0002.23,0001.50
2024-05-22 20:14:00,SystemResetWarning,0823.6,4.99,000.00,027.6,027.0,000.0,035.7,029.4,009.5,0000.0,0006.98,0002.29,0001.51
2024-05-22 20:15:00,SystemResetWarning,0823.7,4.99,000.00,027.6,027.0,000.0,035.7,029.4,009.2,0000.0,0007.38,0002.32,0001.52
2024-05-22 20:16:00,SystemResetWarning,0823.7,5.01,000.00,027.7,027.0,000.0,035.8,029.4,008.8,0000.0,0007.59,0002.33,0001.51
2024-05-22 20:17:00,SystemResetWarning,0823.7,5.00,000.00,027.7,027.0,000.0,035.8,029.4,009.1,0000.0,0007.11,0002.26,0001.51
2024-05-22 20:18:00,SystemResetWarning,0823.7,4.99,000.00,027.7,027.1,000.0,035.8,029.4,009.1,0000.0,0007.61,0002.25,0001.51
2024-05-22 20:19:00,SystemResetWarning,0823.8,5.00,000.00,027.7,027.1,000.0,035.8,029.5,009.0,0000.0,0009.03,0002.28,0001.52
2024-05-22 20:20:00,SystemResetWarning,0823.7,5.00,000.00,027.7,027.1,000.0,035.8,029.5,009.1,0000.0,0008.97,0002.27,0001.51
2024-05-22 20:21:00,SystemResetWarning,0823.8,5.00,000.00,027.7,027.1,000.0,035.8,029.5,009.0,0000.0,0008.99,0002.28,0001.51
2024-05-22 20:22:00,SystemResetWarning,0823.7,5.01,000.00,027.8,027.1,000.0,035.8,029.5,008.6,0000.0,0009.78,0002.37,0001.53
2024-05-22 20:23:00,SystemResetWarning,0823.7,5.01,000.00,027.8,027.1,000.0,035.9,029.5,009.0,0000.0,0009.94,0002.34,0001.54
2024-05-22 20:24:00,SystemResetWarning,0823.7,5.00,000.00,027.8,027.1,000.0,035.9,029.5,008.0,0000.0,0009.41,0002.31,0001.55
2024-05-22 20:25:00,SystemResetWarning,0823.6,4.99,000.00,027.8,027.2,000.0,035.9,029.5,008.4,0000.0,0009.50,0002.26,0001.55
2024-05-22 20:26:00,SystemResetWarning,0823.5,4.99,000.00,027.8,027.2,000.0,035.9,029.6,008.2,0000.0,0009.56,0002.22,0001.54
2024-05-22 20:27:00,SystemResetWarning,0823.5,5.01,000.00,027.8,027.2,000.0,035.9,029.6,008.1,0000.0,0009.23,0002.21,0001.54
2024-05-22 20:28:00,SystemResetWarning,0823.5,5.01,000.00,027.9,027.2,000.0,035.9,029.6,008.1,0000.0,0009.29,0002.27,0001.55
2024-05-22 20:29:00,SystemResetWarning,0823.5,5.00,000.00,027.9,027.2,000.0,036.0,029.6,008.3,0000.0,0009.26,0002.30,0001.56
2024-05-22 20:30:00,SystemResetWarning,0823.5,4.99,000.00,027.9,027.2,000.0,036.0,029.6,008.4,0000.0,0008.15,0002.26,0001.55
2024-05-22 20:31:00,SystemResetWarning,0823.5,4.99,000.00,027.9,027.3,000.0,036.0,029.6,009.3,0000.0,0008.98,0002.29,0001.56
2024-05-22 20:32:00,SystemResetWarning,0823.5,5.00,000.00,027.9,027.3,000.0,036.0,029.7,009.1,0000.0,0009.22,0002.29,0001.56
2024-05-22 20:33:00,SystemResetWarning,0823.4,5.01,000.00,027.9,027.3,000.0,036.0,029.7,009.6,0000.0,0008.64,0002.21,0001.53
2024-05-22 20:34:00,SystemResetWarning,0823.5,5.01,000.00,028.0,027.3,000.0,036.0,029.7,009.4,0000.0,0008.30,0002.26,0001.53
2024-05-22 20:35:00,SystemResetWarning,0823.5,5.01,000.00,028.0,027.3,000.0,036.1,029.7,008.7,0000.0,0008.84,0002.30,0001.52
2024-05-22 20:36:00,SystemResetWarning,0823.5,5.00,000.00,028.0,027.3,000.0,036.1,029.7,009.3,0000.0,0009.12,0002.37,0001.52
2024-05-22 20:37:00,SystemResetWarning,0823.5,5.01,000.00,028.0,027.4,000.0,036.1,029.8,008.5,0000.0,0009.78,0002.43,0001.52
2024-05-22 20:38:00,SystemResetWarning,0823.5,5.00,000.00,028.0,027.4,000.0,036.1,029.8,008.8,0000.0,0010.08,0002.46,0001.53
2024-05-22 20:39:00,SystemResetWarning,0823.4,5.00,000.00,028.1,027.4,000.0,036.1,029.8,009.0,0000.0,0010.60,0002.51,0001.54
2024-05-22 20:40:00,SystemResetWarning,0823.4,5.01,000.00,028.1,027.4,000.0,036.2,029.8,008.5,0000.0,0010.77,0002.48,0001.53
2024-05-22 20:41:00,SystemResetWarning,0823.4,5.00,000.00,028.1,027.4,000.0,036.2,029.8,008.7,0000.0,0010.77,0002.50,0001.53
2024-05-22 20:42:00,SystemResetWarning,0823.4,5.00,000.00,028.1,027.4,000.0,036.2,029.8,008.6,0000.0,0010.60,0002.53,0001.53
2024-05-22 20:43:00,SystemResetWarning,0823.4,5.00,000.00,028.1,027.4,000.0,036.2,029.8,008.2,0000.0,0009.79,0002.52,0001.53
2024-05-22 20:44:00,SystemResetWarning,0823.4,5.00,000.00,028.1,027.5,000.0,036.2,029.8,008.1,0000.0,0009.70,0002.52,0001.54
2024-05-22 20:45:00,SystemResetWarning,0823.4,5.00,000.00,028.1,027.5,000.0,036.2,029.9,008.1,0000.0,0009.67,0002.49,0001.54
2024-05-22 20:46:00,SystemResetWarning,0823.4,4.99,000.00,028.2,027.5,000.0,036.2,029.9,008.3,0000.0,0009.40,0002.46,0001.54
2024-05-22 20:47:00,SystemResetWarning,0823.3,4.99,000.00,028.2,027.5,000.0,036.3,029.9,008.3,0000.0,0008.85,0002.39,0001.54
2024-05-22 20:48:00,SystemResetWarning,0823.3,5.00,000.00,028.2,027.5,000.0,036.3,029.9,008.4,0000.0,0007.67,0002.33,0001.54
2024-05-22 20:49:00,SystemResetWarning,0823.2,5.00,000.00,028.2,027.6,000.0,036.3,029.9,008.7,0000.0,0007.76,0002.32,0001.54
2024-05-22 20:50:00,SystemResetWarning,0823.3,5.01,000.00,028.2,027.6,000.0,036.3,030.0,008.3,0000.0,0007.26,0002.34,0001.55
2024-05-22 20:51:00,SystemResetWarning,0823.3,4.99,000.00,028.2,027.6,000.0,036.4,030.0,008.3,0000.0,0006.81,0002.35,0001.55
2024-05-22 20:52:00,SystemResetWarning,0823.3,5.00,000.00,028.3,027.6,000.0,036.4,030.0,008.0,0000.0,0006.16,0002.30,0001.55
2024-05-22 20:53:00,SystemResetWarning,0823.3,5.00,000.00,028.3,027.6,000.0,036.4,030.0,008.3,0000.0,0005.02,0002.22,0001.56
2024-05-22 20:54:00,SystemResetWarning,0823.3,5.01,000.00,028.3,027.6,000.0,036.4,030.0,008.2,0000.0,0005.42,0002.21,0001.56
2024-05-22 20:55:00,SystemResetWarning,0823.3,5.01,000.00,028.3,027.7,000.0,036.4,030.0,008.9,0000.0,0007.68,0002.26,0001.57
2024-05-22 20:56:00,SystemResetWarning,0823.3,5.00,000.00,028.3,027.7,000.0,036.4,030.1,008.9,0000.0,0008.11,0002.28,0001.58
2024-05-22 20:57:00,SystemResetWarning,0823.3,5.00,000.00,028.3,027.7,000.0,036.5,030.1,009.6,0000.0,0008.16,0002.27,0001.59
2024-05-22 20:58:00,SystemResetWarning,0823.3,5.00,000.00,028.4,027.7,000.0,036.5,030.1,009.4,0000.0,0008.26,0002.28,0001.59
2024-05-22 20:59:00,SystemResetWarning,0823.3,4.99,000.00,028.4,027.7,000.0,036.5,030.1,009.7,0000.0,0008.32,0002.29,0001.60
